• In Hungary
  • List of Countries
  • For 7 days
  • Water Temperature
  • Satellite Maps
  • Weather Map
  • News
  • Weather Widgets
  • user-avatar
    Login

    Hourly Weather Nowinka

    Today, 16 November, Friday

    Time Temperature Precipitation Wind Pressure Humidity
    00:00 +2°C° 0 mm 2 mps 765 mmHg 90%
    01:00 +2°C° 0 mm 2 mps 766 mmHg 90%
    02:00 +1°C° 0 mm 2 mps 766 mmHg 91%
    03:00 +1°C° 0 mm 2 mps 766 mmHg 91%
    04:00 +1°C° 0 mm 2 mps 767 mmHg 91%
    05:00 +1°C° 0 mm 2 mps 767 mmHg 91%
    06:00 -1°C° 0 mm 2 mps 767 mmHg 92%
    07:00 -1°C° 0 mm 2 mps 767 mmHg 92%
    08:00 -1°C° 0 mm 2 mps 767 mmHg 93%
    09:00 +1°C° 0 mm 2 mps 768 mmHg 89%
    10:00 +2°C° 0 mm 2 mps 768 mmHg 85%
    11:00 +3°C° 0 mm 2 mps 768 mmHg 80%
    12:00 +4°C° 0 mm 2 mps 768 mmHg 79%
    13:00 +4°C° 0 mm 2 mps 768 mmHg 77%
    14:00 +5°C° 0 mm 2 mps 768 mmHg 76%
    15:00 +4°C° 0 mm 2 mps 769 mmHg 80%
    16:00 +3°C° 0 mm 2 mps 769 mmHg 85%
    17:00 +2°C° 0 mm 2 mps 769 mmHg 89%
    18:00 +2°C° 0 mm 2 mps 769 mmHg 90%
    19:00 +1°C° 0 mm 2 mps 769 mmHg 92%
    20:00 +1°C° 0 mm 2 mps 769 mmHg 94%
    21:00 +1°C° 0 mm 2 mps 769 mmHg 93%
    22:00 +1°C° 0 mm 2 mps 769 mmHg 93%
    23:00 -1°C° 0 mm 2 mps 769 mmHg 93%

    Tomorrow, 17 November, Saturday

    Time Temperature Precipitation Wind Pressure Humidity
    00:00 -1°C° 0 mm 2 mps 769 mmHg 92%
    01:00 -1°C° 0 mm 2 mps 769 mmHg 90%
    02:00 +1°C° 0 mm 1 mps 769 mmHg 88%
    03:00 +1°C° 0 mm 1 mps 769 mmHg 85%
    04:00 +1°C° 0 mm 1 mps 769 mmHg 81%
    05:00 +1°C° 0 mm 1 mps 769 mmHg 78%
    06:00 +1°C° 0 mm 1 mps 769 mmHg 74%
    07:00 +1°C° 0 mm 1 mps 769 mmHg 71%
    08:00 +1°C° 0 mm 1 mps 769 mmHg 67%
    09:00 +2°C° 0 mm 1 mps 769 mmHg 61%
    10:00 +3°C° 0 mm 1 mps 769 mmHg 54%
    11:00 +4°C° 0 mm 1 mps 769 mmHg 48%
    12:00 +3°C° 0 mm 0 mps 768 mmHg 47%
    13:00 +4°C° 0 mm 0 mps 768 mmHg 46%
    14:00 +4°C° 0 mm 0 mps 768 mmHg 45%
    15:00 +3°C° 0 mm 0 mps 767 mmHg 49%
    16:00 +3°C° 0 mm 0 mps 767 mmHg 53%
    17:00 +3°C° 0 mm 1 mps 766 mmHg 57%
    18:00 +2°C° 0 mm 1 mps 766 mmHg 59%
    19:00 +2°C° 0 mm 1 mps 766 mmHg 61%
    20:00 +2°C° 0 mm 1 mps 765 mmHg 64%
    21:00 +2°C° 0 mm 1 mps 765 mmHg 66%
    22:00 -1°C° 0 mm 2 mps 765 mmHg 69%
    23:00 -1°C° 0 mm 2 mps 764 mmHg 71%

    Day after tomorrow, 18 November, Sunday

    Time Temperature Precipitation Wind Pressure Humidity
    00:00 -1°C° 0 mm 2 mps 764 mmHg 75%
    01:00 -1°C° 0 mm 2 mps 763 mmHg 78%
    02:00 -1°C° 0 mm 2 mps 762 mmHg 82%
    03:00 0°C° 0 mm 3 mps 762 mmHg 84%
    04:00 0°C° 0 mm 3 mps 761 mmHg 87%
    05:00 +1°C° 0 mm 3 mps 760 mmHg 90%
    06:00 +1°C° 0 mm 3 mps 760 mmHg 91%
    07:00 +2°C° 0 mm 3 mps 759 mmHg 93%
    08:00 +2°C° 0 mm 3 mps 758 mmHg 94%
    09:00 +2°C° 0.1 mm 3 mps 758 mmHg 92%
    10:00 +3°C° 0.1 mm 4 mps 758 mmHg 91%
    11:00 +3°C° 0.1 mm 4 mps 757 mmHg 90%
    12:00 +3°C° 0 mm 4 mps 757 mmHg 87%
    13:00 +3°C° 0 mm 4 mps 757 mmHg 84%
    14:00 +4°C° 0 mm 4 mps 756 mmHg 82%
    15:00 +3°C° 0.1 mm 4 mps 756 mmHg 84%
    16:00 +3°C° 0.1 mm 4 mps 756 mmHg 86%
    17:00 +3°C° 0.1 mm 4 mps 756 mmHg 88%
    18:00 +3°C° 0.1 mm 4 mps 756 mmHg 87%
    19:00 +2°C° 0.1 mm 5 mps 756 mmHg 85%
    20:00 +2°C° 0.1 mm 5 mps 755 mmHg 84%
    21:00 +2°C° 0.1 mm 5 mps 755 mmHg 84%
    22:00 +2°C° 0.1 mm 5 mps 755 mmHg 83%
    23:00 +2°C° 0.1 mm 5 mps 755 mmHg 82%

    19 November, Monday

    Time Temperature Precipitation Wind Pressure Humidity
    00:00 +1°C° 0.1 mm 5 mps 755 mmHg 82%
    01:00 +1°C° 0.1 mm 5 mps 755 mmHg 82%
    02:00 0°C° 0.1 mm 5 mps 755 mmHg 82%
    03:00 0°C° 0.2 mm 5 mps 755 mmHg 82%
    04:00 0°C° 0.2 mm 5 mps 755 mmHg 83%
    05:00 0°C° 0.2 mm 5 mps 755 mmHg 83%
    06:00 0°C° 0 mm 5 mps 755 mmHg 83%
    07:00 0°C° 0 mm 5 mps 755 mmHg 83%
    08:00 0°C° 0 mm 5 mps 755 mmHg 83%
    09:00 -1°C° 0 mm 6 mps 755 mmHg 82%
    10:00 -1°C° 0 mm 6 mps 755 mmHg 82%
    11:00 +1°C° 0 mm 6 mps 755 mmHg 81%
    12:00 +1°C° 0.1 mm 6 mps 755 mmHg 80%
    13:00 +1°C° 0.1 mm 6 mps 755 mmHg 80%
    14:00 +1°C° 0.1 mm 6 mps 755 mmHg 79%
    15:00 +1°C° 0.1 mm 5 mps 755 mmHg 81%
    16:00 +1°C° 0.1 mm 5 mps 755 mmHg 83%
    17:00 +1°C° 0.1 mm 5 mps 755 mmHg 84%
    18:00 0°C° 0.1 mm 4 mps 755 mmHg 86%
    19:00 0°C° 0.1 mm 4 mps 755 mmHg 87%
    20:00 0°C° 0.1 mm 4 mps 755 mmHg 88%
    21:00 0°C° 0 mm 4 mps 755 mmHg 90%
    22:00 0°C° 0 mm 3 mps 755 mmHg 91%
    23:00 0°C° 0 mm 3 mps 755 mmHg 93%

    20 November, Tuesday

    Time Temperature Precipitation Wind Pressure Humidity
    00:00 0°C° 0 mm 3 mps 755 mmHg 92%
    01:00 -1°C° 0 mm 4 mps 755 mmHg 91%
    02:00 -1°C° 0 mm 4 mps 755 mmHg 90%
    03:00 -1°C° 0 mm 4 mps 755 mmHg 89%
    04:00 -1°C° 0 mm 4 mps 755 mmHg 88%
    05:00 -1°C° 0 mm 4 mps 755 mmHg 87%
    06:00 -2°C° 0 mm 4 mps 755 mmHg 86%
    07:00 -2°C° 0 mm 5 mps 755 mmHg 85%
    08:00 -4°C° 0 mm 5 mps 755 mmHg 84%
    09:00 -4°C° 0 mm 5 mps 755 mmHg 81%
    10:00 -4°C° 0 mm 5 mps 755 mmHg 78%
    11:00 -2°C° 0 mm 5 mps 755 mmHg 75%
    12:00 -2°C° 0 mm 5 mps 754 mmHg 75%
    13:00 -2°C° 0 mm 5 mps 754 mmHg 74%
    14:00 -1°C° 0 mm 5 mps 754 mmHg 74%
    15:00 -1°C° 0.1 mm 5 mps 754 mmHg 78%
    16:00 -1°C° 0.1 mm 5 mps 753 mmHg 82%
    17:00 -2°C° 0.1 mm 5 mps 753 mmHg 86%
    18:00 -1°C° 0.1 mm 5 mps 753 mmHg 86%
    19:00 -1°C° 0.1 mm 5 mps 753 mmHg 87%
    20:00 -1°C° 0.1 mm 5 mps 753 mmHg 88%
    21:00 -1°C° 0.1 mm 5 mps 753 mmHg 88%
    22:00 -1°C° 0.1 mm 5 mps 753 mmHg 89%
    23:00 -1°C° 0.1 mm 5 mps 753 mmHg 89%

    21 November, Wednesday

    Time Temperature Precipitation Wind Pressure Humidity
    00:00 -1°C° 0 mm 5 mps 753 mmHg 89%
    01:00 -1°C° 0 mm 5 mps 752 mmHg 89%
    02:00 -2°C° 0 mm 5 mps 752 mmHg 89%
    03:00 -2°C° 0 mm 5 mps 752 mmHg 88%
    04:00 -3°C° 0 mm 6 mps 751 mmHg 87%
    05:00 -3°C° 0 mm 6 mps 751 mmHg 86%
    06:00 -2°C° 0 mm 6 mps 750 mmHg 86%
    07:00 -2°C° 0 mm 6 mps 750 mmHg 86%
    08:00 -2°C° 0 mm 7 mps 750 mmHg 86%
    09:00 -2°C° 0.1 mm 7 mps 749 mmHg 85%
    10:00 -1°C° 0.1 mm 7 mps 749 mmHg 84%
    11:00 -1°C° 0.1 mm 8 mps 749 mmHg 82%
    12:00 -1°C° 0 mm 8 mps 749 mmHg 82%
    13:00 -1°C° 0 mm 8 mps 748 mmHg 82%
    14:00 -1°C° 0 mm 8 mps 748 mmHg 81%
    15:00 -1°C° 0 mm 8 mps 748 mmHg 82%
    16:00 -1°C° 0 mm 8 mps 747 mmHg 82%
    17:00 -2°C° 0 mm 8 mps 747 mmHg 82%
    18:00 -2°C° 0 mm 8 mps 747 mmHg 82%
    19:00 -2°C° 0 mm 8 mps 747 mmHg 83%
    20:00 -2°C° 0 mm 8 mps 747 mmHg 83%
    21:00 -2°C° 0.1 mm 8 mps 747 mmHg 83%
    22:00 -2°C° 0.1 mm 8 mps 747 mmHg 83%
    23:00 -2°C° 0.1 mm 8 mps 746 mmHg 83%
    Show more